Regional Weather Roundup
Issued by NWS

Home | Current Version | Previous Version | Text Only | Print | Product List | Glossary Off
Versions: 1 2 3 4 5 6 7 8 9 10 11 12 13 14 15 16 17 18 19 20 21 22 23 24 25 26 27

000
ASUS45 KCYS 202210
RWRWY

WYOMING REGIONAL WEATHER ROUNDUP
NATIONAL WEATHER SERVICE CHEYENNE WY
400 PM MDT SUN MAY 20 2018

NOTE:  "FAIR" INDICATES FEW OR NO CLOUDS BELOW 12,000 FEET
WITH NO SIGNIFICANT WEATHER AND/OR OBSTRUCTIONS TO VISIBILITY.

WYZ001-202300-
YELLOWSTONE NATIONAL PARK

CITY           SKY/WX    TMP DP  RH WIND       PRES   REMARKS
LK YELLOWSTONE   N/A     55  34  45 CALM      30.12F
W YELLOWSTONE  NOT AVBL

$$
WYZ002>013-054>058-071-098>099-202300-
NORTHERN WYOMING

CITY           SKY/WX    TMP DP  RH WIND       PRES   REMARKS
JACKSON        FAIR      65  38  36 CALM      30.01F
CODY           FAIR      68  41  37 SE8       30.01F
GREYBULL       FAIR      73  42  32 SE10G18   29.95F
WORLAND        FAIR      70  45  40 VRB7      29.97F
SHERIDAN       FAIR      71  45  39 SE17      29.98F
BUFFALO        FAIR      67  42  40 SE23G30   30.03F
GILLETTE       FAIR      64  44  48 SE18G26   30.07F
NEWCASTLE      FAIR      57  36  44 SE14G22   30.14F

$$
WYZ014>020-022>026-101>103-202300-
CENTRAL WYOMING

CITY           SKY/WX    TMP DP  RH WIND       PRES   REMARKS
BIG PINEY      FAIR      66  36  32 S7        30.06F
PINEDALE       FAIR      63  34  34 E6        30.08F
DUBOIS         FAIR      59  36  41 SE10      30.07F
LANDER         FAIR      62  48  60 SE3       30.02F
RIVERTON       FAIR      62  45  53 NE6       30.03F
CASPER         FAIR      63  46  54 SE12      30.05F
DOUGLAS        FAIR      63  46  54 SE20G30   30.09F

$$
WYZ021-027>030-104>119-202300-
SOUTHERN WYOMING

CITY           SKY/WX    TMP DP  RH WIND       PRES   REMARKS
EVANSTON       CLOUDY    53  40  61 SE18G25   30.11S
KEMMERER       FAIR      63  32  31 CALM      30.09S
FORT BRIDGER   MOCLDY    62  32  32 SW24G31   30.14R
ROCK SPRINGS   FAIR      64  32  30 CALM      30.05F
DIXON          FAIR      70  31  23 W6        30.06F
RAWLINS        FAIR      70  34  26 N15G21    30.06F
SARATOGA       FAIR      68  32  26 N6G17     30.07F
LARAMIE        FAIR      51  40  65 SE21G30   30.11R
CHEYENNE       CLOUDY    51  42  71 S14       30.16S
TORRINGTON     PTSUNNY   62  46  55 E13       30.11F
PINE BLUFFS    CLOUDY    57  43  58 SE8       30.14F

$$




USA.gov is the U.S. government's official web portal to all federal, state and local government web resources and services.